Weather History for KIXD - August, 2013

Change the Weather History Date:

Thursday, August 29, 2013

  Actual Average Record
Temperature  
Mean Temperature 84 °F -  
Max Temperature 96 °F 86 °F 97 °F (2012)
Min Temperature 72 °F 63 °F 57 °F (2004)
Cooling Degree Days 18    
Growing Degree Days 34 (Base 50)    
Moisture  
Dew Point 69 °F    
Average Humidity 67    
Maximum Humidity 91    
Minimum Humidity 41    
Precipitation  
Precipitation 0.00 in - - ()
Sea Level Pressure  
Sea Level Pressure 29.99 in    
Wind  
Wind Speed 7 mph (South)    
Max Wind Speed 15 mph    
Max Gust Speed 21 mph    
Visibility 10 miles    
Events      
Averages and records for this station are not official NWS values.
T = Trace of Precipitation, MM = Missing Value Source: NWS Daily Summary

Daily Weather History Graph

Daily Weather History Graph

Search for Another Location

Airport or City:

Trip Planner

Search our weather history database for the weather conditions in past years. The results will help you decide how hot, cold, wet, or windy it might be!

Date:

Astronomy

Aug. 29, 2013 Rise Set
Actual Time 6:46 AM CDT 7:53 PM CDT
Civil Twilight 6:18 AM CDT 8:21 PM CDT
Nautical Twilight 5:45 AM CDT 8:53 PM CDT
Astronomical Twilight 5:11 AM CDT 9:27 PM CDT
Moon 12:40 AM CDT (8/29) 3:21 PM CDT (8/29)
Length of Visible Light 14h 02m
Length of Day
13h 07m
Last Quarter, 38% of the Moon is Illuminated
Aug 29
Last Quarter
Sep 5
New
Sep 12
First Quarter
Sep 19
Full
Sep 26
Last Quarter

Hourly Weather History & Observations

Time (CDT) Temp. Heat Index Dew Point Humidity Pressure Visibility Wind Dir Wind Speed Gust Speed Precip Events Conditions
12:53 AM 75.9 °F - 69.1 °F 79% 30.01 in 10.0 mi SSE 5.8 mph - N/A   Clear
1:53 AM 75.0 °F - 69.1 °F 82% 30.01 in 10.0 mi SE 4.6 mph - N/A   Clear
2:53 AM 72.0 °F - 69.1 °F 91% 30.01 in 10.0 mi South 5.8 mph - N/A   Clear
3:53 AM 72.0 °F - 69.1 °F 91% 30.01 in 10.0 mi South 5.8 mph - N/A   Clear
4:53 AM 72.0 °F - 69.1 °F 91% 30.01 in 10.0 mi South 3.5 mph - N/A   Clear
5:53 AM 72.0 °F - 69.1 °F 91% 30.01 in 10.0 mi South 4.6 mph - N/A   Partly Cloudy
6:53 AM 72.0 °F - 69.1 °F 91% 30.02 in 10.0 mi South 5.8 mph - N/A   Clear
7:53 AM 75.9 °F - 70.0 °F 82% 30.02 in 10.0 mi South 6.9 mph - N/A   Partly Cloudy
8:53 AM 82.0 °F 86.3 °F 71.1 °F 69% 30.02 in 10.0 mi South 9.2 mph - N/A   Clear
9:53 AM 86.0 °F 91.5 °F 71.1 °F 61% 30.03 in 10.0 mi South 9.2 mph - N/A   Clear
10:53 AM 90.0 °F 94.5 °F 69.1 °F 50% 30.02 in 10.0 mi South 11.5 mph - N/A   Partly Cloudy
11:53 AM 90.0 °F 94.5 °F 69.1 °F 50% 30.02 in 10.0 mi SSW 11.5 mph 17.3 mph N/A   Scattered Clouds
12:53 PM 93.0 °F 97.4 °F 68.0 °F 44% 30.00 in 10.0 mi South 8.1 mph 17.3 mph N/A   Clear
1:53 PM 91.9 °F 95.9 °F 68.0 °F 45% 29.99 in 10.0 mi South 15.0 mph 20.7 mph N/A   Clear
2:53 PM 91.9 °F 96.9 °F 69.1 °F 47% 29.98 in 10.0 mi South 8.1 mph - N/A   Clear
3:53 PM 95.0 °F 99.5 °F 68.0 °F 41% 29.96 in 10.0 mi South 10.4 mph - N/A   Clear
4:53 PM 93.9 °F 97.5 °F 66.9 °F 41% 29.94 in 10.0 mi South 9.2 mph - N/A   Clear
5:53 PM 93.0 °F 97.4 °F 68.0 °F 44% 29.94 in 10.0 mi South 10.4 mph - N/A   Clear
6:53 PM 90.0 °F 95.4 °F 70.0 °F 52% 29.94 in 10.0 mi South 8.1 mph - N/A   Clear
7:53 PM 84.0 °F 88.4 °F 70.0 °F 63% 29.94 in 10.0 mi SSE 5.8 mph - N/A   Clear
8:53 PM 80.1 °F 83.2 °F 70.0 °F 71% 29.95 in 10.0 mi SSE 5.8 mph - N/A   Clear
9:53 PM 78.1 °F - 71.1 °F 79% 29.95 in 10.0 mi South 5.8 mph - N/A   Clear
10:53 PM 78.1 °F - 71.1 °F 79% 29.94 in 10.0 mi South 4.6 mph - N/A   Clear
11:53 PM 77.0 °F - 71.1 °F 82% 29.94 in 10.0 mi South 5.8 mph - N/A   Clear